User: anonymous   Login
Location: Elk Forest
(39.5314°N, 75.8738°W)
Time: 19:57:12
(UTC-04:00)
Language:

Resurs 01 Rocket - Orbit

View from above orbital plane
View from above orbital plane
View from above satellite
View from above satellite

Ground track
Ground track

The orbit data is extracted from the following two-line orbital elements,

1 23343U 94074B   14294.50377655  .00000646  00000-0  10107-3 0  1492
2 23343 098.2257 300.6760 0005703 301.8963 173.5151 14.76234897 73731
Epoch (UTC): 21 October 2014 12:05:26
Eccentricity: 0.0005703
inclination: 98.2257°
perigee height: 637 km
apogee height: 645 km
right ascension of ascending node: 300.6760°
argument of perigee: 301.8963°
revolutions per day: 14.76234897
mean anomaly at epoch: 173.5151°
orbit number at epoch: 7373

The dashed part of the orbit path shows where the satellite is in the earth's shadow,  

DLR